Weather History for Dyersburg, TN

Change the Weather History Date:

Monday, December 16, 2013

  Actual Average Record
Temperature  
Mean Temperature 50 °F -  
Max Temperature 55 °F 45 °F 69 °F (2006)
Min Temperature 44 °F 31 °F 23 °F (2004)
Degree Days  
Heating Degree Days 16    
Moisture  
Dew Point 32 °F    
Average Humidity 49    
Maximum Humidity 54    
Minimum Humidity 44    
Precipitation  
Precipitation 0.00 in - - ()
Sea Level Pressure  
Sea Level Pressure 30.13 in    
Wind  
Wind Speed 11 mph (SW)    
Max Wind Speed 18 mph    
Max Gust Speed 25 mph    
Visibility 10 miles    
Events      
Averages and records for this station are not official NWS values.
T = Trace of Precipitation, MM = Missing Value Source: NWS Daily Summary

Daily Weather History Graph

Daily Weather History Graph

Search for Another Location

Airport:

Trip Planner

Search our weather history database for the weather conditions in past years. The results will help you decide how hot, cold, wet, or windy it might be!

Date:

Astronomy

Dec. 16, 2013 Rise Set
Actual Time 7:01 AM CST 4:45 PM CST
Civil Twilight 6:33 AM CST 5:13 PM CST
Nautical Twilight 6:01 AM CST 5:45 PM CST
Astronomical Twilight 5:29 AM CST 6:17 PM CST
Moon 4:33 PM CST (12/16) 6:11 AM CST (12/16)
Length of Visible Light 10h 40m
Length of Day
9h 43m
Full, 100% of the Moon is Illuminated
Dec 16
Full
Dec 17
Full
Dec 25
Last Quarter
Jan 1
New
Jan 7
First Quarter

Hourly Weather History & Observations

Time (CST) Temp. Windchill Dew Point Humidity Pressure Visibility Wind Dir Wind Speed Gust Speed Precip Events Conditions
9:35 AM 44.6 °F 38.8 °F 28.4 °F 53% 30.18 in 10.0 mi SW 11.5 mph 17.3 mph N/A   Unknown
9:55 AM 46.4 °F 40.1 °F 30.2 °F 53% 30.17 in 10.0 mi SW 15.0 mph - N/A   Clear
10:15 AM 46.4 °F 40.4 °F 30.2 °F 53% 30.17 in 10.0 mi SW 13.8 mph 20.7 mph N/A   Clear
10:35 AM 50.0 °F - 32.0 °F 50% 30.17 in 10.0 mi SW 11.5 mph - N/A   Clear
11:15 AM 51.8 °F - 33.8 °F 50% 30.16 in 10.0 mi WSW 16.1 mph - N/A   Unknown
11:35 AM 51.8 °F - 32.0 °F 47% 30.15 in 10.0 mi WSW 17.3 mph 21.9 mph N/A   Clear
11:55 AM 53.6 °F - 32.0 °F 44% 30.14 in 10.0 mi WSW 16.1 mph 25.3 mph N/A   Clear
1:35 PM 53.6 °F - 35.6 °F 51% 30.11 in 10.0 mi WSW 18.4 mph - N/A   Clear
1:55 PM 53.6 °F - 33.8 °F 47% 30.10 in 10.0 mi WSW 17.3 mph 21.9 mph N/A   Clear
2:15 PM 55.4 °F - 35.6 °F 47% 30.10 in 10.0 mi SW 12.7 mph - N/A   Unknown
2:35 PM 55.4 °F - 35.6 °F 47% 30.10 in 10.0 mi WSW 16.1 mph 21.9 mph N/A   Clear
2:55 PM 55.4 °F - 35.6 °F 47% 30.10 in 10.0 mi WSW 17.3 mph 21.9 mph N/A   Clear
3:15 PM 55.4 °F - 35.6 °F 47% 30.10 in 10.0 mi WSW 11.5 mph - N/A   Clear
3:35 PM 55.4 °F - 35.6 °F 47% 30.10 in 10.0 mi SW 11.5 mph - N/A   Clear
3:55 PM 55.4 °F - 33.8 °F 44% 30.10 in 10.0 mi SW 9.2 mph - N/A   Clear
4:15 PM 55.4 °F - 33.8 °F 44% 30.11 in 10.0 mi SW 8.1 mph - N/A   Clear
4:35 PM 53.6 °F - 33.8 °F 47% 30.11 in 10.0 mi SW 6.9 mph - N/A   Clear
4:55 PM 53.6 °F - 33.8 °F 47% 30.11 in 10.0 mi SW 9.2 mph - N/A   Clear
5:15 PM 51.8 °F - 32.0 °F 47% 30.12 in 10.0 mi SW 9.2 mph - N/A   Clear
5:35 PM 51.8 °F - 32.0 °F 47% 30.12 in 10.0 mi SW 8.1 mph - N/A   Clear
5:55 PM 50.0 °F - 30.2 °F 47% 30.12 in 10.0 mi SSW 5.8 mph - N/A   Clear
6:15 PM 50.0 °F - 30.2 °F 47% 30.11 in 10.0 mi South 5.8 mph - N/A   Clear
6:35 PM 50.0 °F - 30.2 °F 47% 30.11 in 10.0 mi South 4.6 mph - N/A   Clear
6:55 PM 48.2 °F - 30.2 °F 50% 30.11 in 10.0 mi South 6.9 mph - N/A   Clear
7:15 PM 50.0 °F - 32.0 °F 50% 30.12 in 10.0 mi SSW 8.1 mph - N/A   Clear
7:35 PM 50.0 °F - 32.0 °F 50% 30.12 in 10.0 mi SSW 8.1 mph - N/A   Clear
7:55 PM 50.0 °F - 32.0 °F 50% 30.12 in 10.0 mi SSW 8.1 mph - N/A   Clear
8:15 PM 48.2 °F - 32.0 °F 54% 30.12 in 10.0 mi South 8.1 mph - N/A   Clear
8:35 PM 48.2 °F - 32.0 °F 54% 30.12 in 10.0 mi South 6.9 mph - N/A   Clear
8:55 PM 48.2 °F - 32.0 °F 54% 30.12 in 10.0 mi SSW 6.9 mph - N/A   Clear
9:15 PM 48.2 °F - 32.0 °F 54% 30.13 in 10.0 mi SSW 4.6 mph - N/A   Clear
9:35 PM 48.2 °F - 30.2 °F 50% 30.13 in 10.0 mi SSW 4.6 mph - N/A   Clear
9:55 PM 48.2 °F - 30.2 °F 50% 30.14 in 10.0 mi SW 4.6 mph - N/A   Clear
10:15 PM 48.2 °F - 30.2 °F 50% 30.13 in 10.0 mi South 5.8 mph - N/A   Clear
10:35 PM 46.4 °F 44.3 °F 30.2 °F 53% 30.14 in 10.0 mi SSW 4.6 mph - N/A   Clear
10:55 PM 46.4 °F 43.5 °F 30.2 °F 53% 30.14 in 10.0 mi SSW 5.8 mph - N/A   Clear
11:15 PM 46.4 °F 42.9 °F 30.2 °F 53% 30.14 in 10.0 mi SW 6.9 mph - N/A   Clear
11:55 PM 48.2 °F - 30.2 °F 50% 30.14 in 10.0 mi SW 12.7 mph - N/A   Clear